Simultaneous Nadir Overpasses (SNOs) Predictions

Prediction of SNOs between GOES-15 and TERRA Satellite Orbit:

Table of predicted SNOs for the next 14.0 days since TLE Epoch: 8/25/2018
Index Date Time (GOES-15) GOES-15 Lat,Lon TERRA Lat,Lon Distance(km) Time Diff (sec)
1 08/26/2018 19:26:17 0.20,-134.73 0.12,-134.25 54.68 80
2 08/28/2018 19:14:06 0.19,-134.64 -0.49,-131.29 380.40 80
3 08/29/2018 07:38:09 -0.23,-134.56 -0.61,-136.48 217.46 80
4 08/31/2018 07:23:17 -0.22,-134.46 -0.00,-133.52 107.45 80
5 08/31/2018 19:47:12 0.26,-134.48 1.14,-138.67 475.69 80
6 09/02/2018 07:11:05 -0.22,-134.35 0.61,-130.56 431.58 80
7 09/02/2018 19:35:00 0.26,-134.37 0.53,-135.71 151.74 80
8 09/04/2018 19:20:08 0.25,-134.25 -0.08,-132.75 171.28 80
9 09/05/2018 07:44:11 -0.29,-134.17 -1.08,-137.93 426.92 80
10 09/06/2018 19:07:56 0.25,-134.13 -0.68,-129.79 493.58 80
11 09/07/2018 07:31:59 -0.28,-134.04 -0.48,-134.97 104.80 80




NCC Satellite Simultaneous Nadir Overpasses (SNOs) Prediction Service
